Time,TemperatureF,DewpointF,PressureIn,WindDirection,WindDirectionDegrees,WindSpeedMPH,WindSpeedGustMPH,Humidity,HourlyPrecipIn,Conditions,Clouds,dailyrainin,SoftwareType,DateUTC
2013-03-16 00:00:00,54.9,54.9,29.86,SSW,213,2.0,16.0,100,0.00,CLR,,0.00,WeatherDisplay:10.37,2013-03-16 04:00:00,
2013-03-16 00:23:00,54.2,54.2,29.86,SW,215,1.0,12.0,100,0.00,CLR,,0.00,WeatherDisplay:10.37,2013-03-16 04:23:00,
2013-03-16 01:00:00,53.6,53.6,29.85,SSW,212,1.0,12.0,100,0.00,CLR,,0.00,WeatherDisplay:10.37,2013-03-16 05:00:00,
2013-03-16 02:00:00,53.0,53.0,29.83,SSW,213,3.0,12.0,100,0.00,CLR,,0.00,WeatherDisplay:10.37,2013-03-16 06:00:00,
2013-03-16 03:00:00,53.3,53.3,29.82,SW,224,3.0,10.0,100,0.00,CLR,,0.00,WeatherDisplay:10.37,2013-03-16 07:00:00,
2013-03-16 04:00:00,53.5,53.5,29.80,SW,233,1.0,12.0,100,0.00,CLR,,0.00,WeatherDisplay:10.37,2013-03-16 08:00:00,
2013-03-16 05:00:00,52.5,52.5,29.79,SW,225,5.0,12.0,100,0.00,CLR,,0.00,WeatherDisplay:10.37,2013-03-16 09:00:00,
2013-03-16 06:00:00,52.3,52.3,29.79,SW,224,6.0,12.0,100,0.00,CLR,,0.00,WeatherDisplay:10.37,2013-03-16 10:00:00,
2013-03-16 07:00:00,52.9,52.9,29.81,SW,235,1.0,10.0,100,0.00,CLR,,0.00,WeatherDisplay:10.37,2013-03-16 11:00:00,
2013-03-16 08:00:00,54.0,54.0,29.80,SW,226,6.0,12.0,100,0.00,CLR,,0.00,WeatherDisplay:10.37,2013-03-16 12:00:00,
2013-03-16 09:00:00,55.8,55.8,29.81,SW,228,3.0,15.0,100,0.00,CLR,,0.00,WeatherDisplay:10.37,2013-03-16 13:00:00,
2013-03-16 10:00:00,57.6,57.6,29.80,SW,231,2.0,17.0,100,0.00,CLR,,0.00,WeatherDisplay:10.37,2013-03-16 14:00:00,
2013-03-16 11:00:00,61.5,61.5,29.78,SW,224,3.0,18.0,100,0.00,CLR,,0.00,WeatherDisplay:10.37,2013-03-16 15:00:00,
2013-03-16 12:00:00,66.6,66.6,29.75,WSW,238,5.0,20.0,100,0.00,CLR,,0.00,WeatherDisplay:10.37,2013-03-16 16:00:00,
2013-03-16 13:00:00,67.8,67.8,29.73,SW,228,7.0,16.0,100,0.00,CLR,,0.00,WeatherDisplay:10.37,2013-03-16 17:00:00,
2013-03-16 14:00:00,72.9,72.9,29.70,SW,227,6.0,16.0,100,0.00,,,0.00,WeatherDisplay:10.37,2013-03-16 18:00:00,
2013-03-16 15:00:00,74.6,41.1,29.67,SW,226,7.0,20.0,30,0.00,CLR,,0.00,WeatherDisplay:10.37,2013-03-16 19:00:00,
2013-03-16 16:00:00,75.7,43.8,29.64,SW,218,3.0,20.0,32,0.00,CLR,,0.00,WeatherDisplay:10.37,2013-03-16 20:00:00,
2013-03-16 17:00:00,76.9,46.3,29.62,SW,228,6.0,24.0,34,0.00,CLR,,0.00,WeatherDisplay:10.37,2013-03-16 21:00:00,
2013-03-16 18:00:00,75.2,44.1,29.60,SW,217,7.0,22.0,33,0.00,CLR,,0.00,WeatherDisplay:10.37,2013-03-16 22:00:00,
2013-03-16 19:00:00,73.4,41.7,29.62,WSW,239,6.0,18.0,32,0.00,CLR,,0.00,WeatherDisplay:10.37,2013-03-16 23:00:00,
2013-03-16 20:00:00,71.1,38.1,29.66,WSW,253,1.0,10.0,30,0.00,CLR,,0.00,WeatherDisplay:10.37,2013-03-17 00:00:00,
2013-03-16 21:00:00,69.0,33.6,29.73,NW,317,0.0,7.0,27,0.00,CLR,,0.00,WeatherDisplay:10.37,2013-03-17 01:00:00,
2013-03-16 22:00:00,66.5,22.9,29.77,NNW,331,0.0,3.0,19,0.00,CLR,,0.00,WeatherDisplay:10.37,2013-03-17 02:00:00,
2013-03-16 23:00:00,62.8,7.4,29.78,NW,326,0.0,3.0,11,0.00,CLR,,0.00,WeatherDisplay:10.37,2013-03-17 03:00:00,